Regional Weather Roundup
Issued by NWS

Home | Current Version | Previous Version | Graphics & Text | Print | Product List | Glossary On
Versions: 1 2 3 4 5 6 7 8 9 10 11 12 13 14 15 16 17 18 19 20 21 22 23 24 25 26 27 28 29 30 31 32 33 34 35 36 37 38 39 40 41 42 43 44 45 46 47 48 49 50
000
ASUS43 KMPX 232310
RWRMN
WEATHER ROUNDUP FOR MINNESOTA
NATIONAL WEATHER SERVICE TWIN CITIES/CHANHASSEN MN
500 PM CST TUE JAN 23 2018


NOTE: "FAIR" INDICATES FEW OR NO CLOUDS BELOW 12,000 FEET WITH NO
SIGNIFICANT WEATHER AND/OR OBSTRUCTIONS TO VISIBILITY. N/A MEANS
CURRENT SKY AND/OR WEATHER CONDITIONS ARE NOT AVAILABLE.

MNZ060>063-068>070-240000-
   Twin Cities Metro

CITY           SKY/WX    TMP DP  RH WIND       PRES   REMARKS
TWIN CITIES    FAIR      23  15  71 NW5       30.12R WCI  17
ST PAUL        FAIR      25  15  66 N7        30.14R WCI  17
CRYSTAL        FAIR      24  12  60 NW5       30.11R WCI  18
BLAINE         PTCLDY    27  16  63 NW7       30.11R WCI  19
LAKEVILLE      FAIR      18  10  73 W5        30.12R WCI  11
EDEN PRAIRIE   FAIR      26  13  57 N6        30.11R WCI  19
SOUTH ST PAUL  FAIR      26  16  64 N3        30.12R
LAKE ELMO      FAIR      25  16  68 NE3       30.13R
$$
MNZ001>005-007-008-013>017-022>024-027-028-240000-
   Northwest Minnesota

CITY           SKY/WX    TMP DP  RH WIND       PRES   REMARKS
BEMIDJI        FAIR      20  10  63 CALM      30.08R
HALLOCK        CLOUDY    21  19  93 S9        30.09S FOG     WCI  11
ROSEAU         FLURRIES  19  16  86 SW5       30.11R WCI  13
WARROAD        CLOUDY    12   9  85 CALM      30.12R
THIEF RVR FALL CLOUDY    18  16  92 S8        30.12R WCI   8
CROOKSTON      CLOUDY    21  19  93 S8        30.13R WCI  12
FOSSTON        CLOUDY    18  12  79 W8        30.11R WCI   7
DETROIT LAKES  CLOUDY    21  19  93 CALM      30.11R
MOORHEAD       CLOUDY    21  18  86 SW6       30.14R WCI  14
PARK RAPIDS    FAIR      20  13  74 W6        30.07R WCI  12
MAHNOMEN       CLOUDY    19  16  86 W6        30.11R WCI  11
$$
MNZ006-009>011-018-025>026-240000-
   North Central Minnesota

CITY           SKY/WX    TMP DP  RH WIND       PRES   REMARKS
BAUDETTE       FAIR      15   3  59 E8        30.09R WCI   4
FLAG ISLAND    CLOUDY    12   3  67 CALM      30.11R
INTL FALLS     FAIR      13  -3  49 CALM      30.11R
WASKISH        FAIR      14   5  67 CALM      30.10R
BIG FORK       FAIR      18   7  62 CALM      30.08R
LONGVILLE      FAIR      21   9  58 CALM      30.08S
GRAND RAPIDS   FAIR      17   6  62 CALM      30.09S
CRANE LAKE     FAIR       9  -2  61 CALM      30.13R
ORR            FAIR      14   0  52 CALM      30.07R
COOK           FAIR      16   3  57 CALM      30.09R
WALKER         FAIR      19   5  55 CALM      30.08R
$$
MNZ012-019>021-037-240000-
   Northeast Minnesota

CITY           SKY/WX    TMP DP  RH WIND       PRES   REMARKS
DULUTH         FAIR      21   5  50 N6        30.06R WCI  13
HIBBING        FAIR      14   2  58 N3        30.07R
EVELETH        FAIR      17   2  50 NE3       30.08S
DULUTH HARBOR  FAIR      23  10  58 CALM      30.13R
TWO HARBORS    FAIR      25   9  50 CALM      30.07R
SILVER BAY     FAIR      21  -4  33 N3        30.07R
GRAND MARAIS     N/A     20  -6  31 MISG      30.12R
G MARAIS ARPRT FAIR      10 -13  34 N5        30.04R WCI   2
$$
MNZ029>031-032-039>041-046>048-054>057-064-240000-
   West Central Minnesota

CITY           SKY/WX    TMP DP  RH WIND       PRES   REMARKS
FERGUS FALLS   CLOUDY    21  18  86 W3        30.13R
MORRIS         CLOUDY    25  18  74 W7        30.12R WCI  17
ALEXANDRIA     FAIR      23  17  78 W6        30.10R WCI  16
ELBOW LAKE     CLOUDY    23  18  83 NW5       30.12R WCI  16
WADENA         FAIR      19  14  79 W5        30.09R WCI  13
GLENWOOD       FAIR      23  18  80 W7        30.10S WCI  15
APPLETON       CLOUDY    27  19  74 W3        30.14R
BENSON         CLOUDY    25  18  74 NW6       30.15R WCI  18
ORTONVILLE     CLOUDY    27  19  74 W3        30.12R
MADISON        CLOUDY    28  21  74 W7        30.14R WCI  21
WILLMAR        FAIR      27  19  74 W6        30.14R WCI  20
$$
MNZ033>034-036-042>043-049>051-058-059-240000-
   Central Minnesota

CITY           SKY/WX    TMP DP  RH WIND       PRES   REMARKS
ST CLOUD       FAIR      25  13  60 N3        30.11R
SAUK CENTRE      N/A     26  16  66 CALM      30.10S
PAYNESVILLE    FAIR      27  19  70 CALM      30.11R
AITKIN         FAIR      19  10  68 CALM      30.08R
PINE RIVER     FAIR      21   9  58 CALM      30.11R
BRAINERD       FAIR      24   7  48 CALM      30.09R
STAPLES        FAIR      19  12  73 CALM      30.09R
LONG PRAIRIE   FAIR      25  16  68 SW3       30.10S
LITTLE FALLS   FAIR      27   5  39 CALM      30.10S
LITCHFIELD     FAIR      28  18  64 NW5       30.11R WCI  23
BUFFALO        FAIR      26  12  56 N3        30.12R
MAPLE LAKE     FAIR      27  16  63 MISG      30.11S
HUTCHINSON     FAIR      27  18  69 NW5       30.12R WCI  21
$$
MNZ037-044-045-052-053-240000-
   East Central Minnesota

CITY           SKY/WX    TMP DP  RH WIND       PRES   REMARKS
PRINCETON      FAIR      25  14  63 CALM      30.11R
MORA           FAIR      25  12  58 CALM      30.13R
CAMBRIDGE        N/A     25  12  58 CALM      30.13R
RUSH CITY      FAIR      21   9  60 CALM      30.12R
MOOSE LAKE     FAIR      23   9  54 CALM      30.08R
HINCKLEY       FAIR      23  10  58 CALM      30.11R
CLOQUET        FAIR      21   3  45 W3        30.07S
MCGREGOR       FAIR      23  12  63 CALM      30.09R
$$
MNZ071>073-080-081-089-090-097-098-240000-
   Southwest Minnesota

CITY           SKY/WX    TMP DP  RH WIND       PRES   REMARKS
MONTEVIDEO     CLOUDY    25  18  74 NW3       30.14R
GRANITE FALLS  CLOUDY    28  21  77 W6        30.15S WCI  21
CANBY          CLOUDY    27  23  84 NW7       30.14R WCI  19
MARSHALL       CLOUDY    26  21  81 W8        30.14R WCI  18
REDWOOD FALLS  MOCLDY    26  19  74 W9        30.13R WCI  17
OLIVIA         CLOUDY    30  21  69 W9        30.12R WCI  22
PIPESTONE      CLOUDY    21  19  93 W8        30.11R WCI  12
WINDOM         CLOUDY    23   9  54 W7        30.13R WCI  15
WORTHINGTON    CLOUDY    22  20  92 W9        30.13R WCI  12
JACKSON        CLOUDY    23  19  86 W8        30.13R WCI  14
TRACY          CLOUDY    26  22  85 W3        30.13R
SLAYTON        CLOUDY    23  21  91 W8        30.12R WCI  14
$$
MNZ065>067-074>077-082>085-091>093-240000-
   South Central Minnesota

CITY           SKY/WX    TMP DP  RH WIND       PRES   REMARKS
MANKATO        FAIR      22  15  75 W5        30.13  WCI  16
NEW ULM        CLOUDY    18  12  79 W6        30.13R WCI   9
ST JAMES       CLOUDY    21  18  86 W8        30.15R WCI  12
FAIRMONT       CLOUDY    21  16  81 W12       30.15R WCI   9
FARIBAULT      FAIR      21  16  79 W3        30.12R
OWATONNA       FAIR      14  10  85 W5        30.11R WCI   6
WASECA         FAIR      18  12  79 W3        30.13R
ALBERT LEA     FAIR      19  14  79 CALM      30.11R
$$
MNZ078>079-086>088-094>096-240000-
   Southeast Minnesota

CITY           SKY/WX    TMP DP  RH WIND       PRES   REMARKS
ROCHESTER      FAIR      16  13  88 W7        30.10R WCI   6
RED WING       FAIR      23  14  68 CALM      30.12R
STANTON        FAIR      18  11  76 CALM      30.11R
DODGE CENTER   FAIR      18  12  79 CALM      30.10R
WINONA         CLOUDY    25  18  74 NW5       30.12R WCI  19
AUSTIN         FAIR      19  14  79 NW7       30.11R WCI  10
PRESTON        CLOUDY    20  16  84 NW7       30.10R WCI  11
$$
ABBREVIATIONS USED IN REMARKS
   TC - TEMPERATURES IN CELSIUS
  WCI - WIND CHILL INDEX
   HX - HEAT INDEX
  VSB - VISIBILITY
$$



USA.gov is the U.S. government's official web portal to all federal, state and local government web resources and services.